FW1589 Weather Reports


Display with metric or nautical units.
time (UTC)temp
F
wind
direction
speed
MPH
gust
MPH
rain 1hr
in
rain 24hr
in
rain mn
in
humidity
%
barometer
mb
20260502234415 58 232 5.0 12.0 0.00 0.00 0.00 77 994.6
20260502233914 58 250 5.0 12.0 0.00 0.00 0.00 76 994.7
20260502233415 59 260 5.0 14.0 0.00 0.00 0.00 76 994.8
20260502232915 59 182 5.0 14.0 0.00 0.00 0.00 75 994.8
20260502231915 59 180 5.0 11.0 0.00 0.00 0.00 75 994.9
20260502231415 59 192 4.0 9.0 0.00 0.00 0.00 75 994.9
20260502230914 60 209 4.0 11.0 0.00 0.00 0.00 76 994.9
20260502225414 59 177 5.0 16.0 0.00 0.00 0.00 74 995.3
20260502224412 59 242 5.0 14.0 0.00 0.00 0.00 74 995.4
20260502223912 59 262 5.0 14.0 0.00 0.00 0.00 73 995.5
20260502223413 60 203 4.0 10.0 0.00 0.00 0.00 74 995.5
20260502222912 59 221 4.0 11.0 0.00 0.00 0.00 74 995.6
20260502222412 59 223 5.0 11.0 0.00 0.00 0.00 73 995.5
20260502221912 59 221 5.0 14.0 0.00 0.00 0.00 74 995.7
20260502221411 59 221 5.0 14.0 0.00 0.00 0.00 74 995.7
20260502220910 59 169 5.0 10.0 0.00 0.00 0.00 75 995.8
20260502215910 59 259 4.0 11.0 0.00 0.00 0.00 76 995.8
20260502215410 58 198 4.0 11.0 0.00 0.00 0.00 77 995.9
20260502214906 58 256 4.0 11.0 0.00 0.00 0.00 76 995.8
20260502214406 58 242 4.0 15.0 0.00 0.00 0.00 77 995.9
20260502212402 58 209 5.0 11.0 0.00 0.00 0.00 75 995.9
20260502211400 57 245 5.0 11.0 0.00 0.00 0.00 77 996.0
20260502210402 57 254 5.0 14.0 0.00 0.00 0.00 78 996.1
20260502205900 57 232 5.0 13.0 0.00 0.00 0.00 78 996.2
20260502205400 57 206 5.0 10.0 0.00 0.00 0.00 78 996.3
20260502204401 57 264 5.0 10.0 0.00 0.00 0.00 78 996.3
20260502203901 57 236 5.0 10.0 0.00 0.00 0.00 78 996.3
20260502203354 57 236 4.0 10.0 0.00 0.00 0.00 79 996.5
20260502202849 57 225 4.0 9.0 0.00 0.00 0.00 80 996.4
20260502202343 57 230 4.0 9.0 0.00 0.00 0.00 80 996.4
20260502201331 56 228 5.0 11.0 0.00 0.00 0.00 81 996.4
20260502200825 56 269 4.0 10.0 0.00 0.00 0.00 81 996.5
20260502200318 57 254 4.0 11.0 0.00 0.00 0.00 81 996.6
20260502195813 56 219 4.0 10.0 0.00 0.00 0.00 81 996.6
20260502195306 56 222 3.0 8.0 0.00 0.00 0.00 82 996.5
20260502194801 56 220 3.0 6.0 0.00 0.00 0.00 82 996.5
20260502194255 56 236 3.0 8.0 0.00 0.00 0.00 82 996.5
20260502193749 56 190 3.0 8.0 0.00 0.00 0.00 82 996.6
20260502193243 56 233 3.0 8.0 0.00 0.00 0.00 83 996.5
20260502192231 55 225 4.0 10.0 0.00 0.00 0.00 82 996.6
20260502191725 56 223 3.0 10.0 0.00 0.00 0.00 83 996.6
20260502191219 56 242 3.0 7.0 0.00 0.00 0.00 82 996.5
20260502190713 56 265 4.0 8.0 0.00 0.00 0.00 82 996.6
20260502190207 55 238 4.0 11.0 0.00 0.00 0.00 82 996.6
20260502185702 55 234 4.0 11.0 0.00 0.00 0.00 82 996.5
20260502185155 55 205 3.0 9.0 0.00 0.00 0.00 83 996.6
20260502184649 55 253 3.0 8.0 0.00 0.00 0.00 84 996.6
20260502183637 55 207 4.0 9.0 0.00 0.00 0.00 84 996.6
20260502183131 55 191 4.0 9.0 0.00 0.00 0.00 84 996.6
20260502182624 54 184 4.0 11.0 0.00 0.00 0.00 84 996.6
20260502182119 54 207 4.0 11.0 0.00 0.00 0.00 85 996.7
20260502181613 54 251 4.0 11.0 0.00 0.00 0.00 85 996.6
20260502181107 54 216 4.0 11.0 0.00 0.00 0.00 84 996.5
20260502180601 54 215 4.0 10.0 0.00 0.00 0.00 85 996.6
20260502170449 54 184 4.0 10.0 0.00 0.00 0.00 87 996.3
20260502163919 53 242 3.0 7.0 0.00 0.00 0.00 88 996.4
20260502163413 53 218 4.0 8.0 0.00 0.00 0.00 88 996.4
20260502162907 53 232 4.0 8.0 0.00 0.00 0.00 88 996.4
20260502162400 53 177 4.0 10.0 0.00 0.00 0.00 88 996.3
20260502161855 53 263 4.0 10.0 0.00 0.00 0.00 88 996.1
20260502161349 53 273 5.0 9.0 0.00 0.00 0.00 88 996.2
20260502160843 53 215 4.0 9.0 0.00 0.00 0.00 88 996.2
20260502160337 53 240 4.0 10.0 0.00 0.00 0.00 88 996.2
20260502152249 53 233 4.0 9.0 0.00 0.00 0.00 88 996.0
20260502151236 53 249 4.0 10.0 0.00 0.00 0.00 88 995.8
20260502150731 53 217 3.0 10.0 0.00 0.00 0.00 88 995.8
20260502150225 53 242 3.0 8.0 0.00 0.00 0.00 88 995.8
20260502130706 53 217 3.0 7.0 0.00 0.00 0.00 88 995.1
20260502130207 53 230 4.0 9.0 0.00 0.00 0.00 88 995.1
20260502123706 53 195 4.0 11.0 0.00 0.00 0.00 87 994.9
20260502123206 53 214 4.0 10.0 0.00 0.00 0.00 87 995.0
20260502122701 53 159 3.0 9.0 0.00 0.00 0.00 87 995.0
20260502122203 53 242 3.0 7.0 0.00 0.00 0.00 87 995.0
20260502121701 53 208 3.0 7.0 0.00 0.00 0.00 87 994.9
20260502121203 53 242 4.0 7.0 0.00 0.00 0.00 87 994.9
20260502120201 53 243 3.0 9.0 0.00 0.00 0.00 88 995.0
20260502115702 53 231 3.0 9.0 0.00 0.00 0.00 88 995.0
20260502115201 53 211 3.0 8.0 0.00 0.00 0.00 88 994.9
20260502114703 53 220 3.0 8.0 0.00 0.00 0.00 88 994.9
20260502114157 53 246 2.0 8.0 0.00 0.00 0.00 88 995.0
20260502113659 53 188 2.0 10.0 0.00 0.00 0.00 88 994.9
20260502113155 53 217 4.0 10.0 0.00 0.00 0.00 88 995.0
20260502112656 53 190 6.0 12.0 0.00 0.00 0.00 88 995.0
20260502112155 53 173 4.0 12.0 0.00 0.00 0.00 88 995.0
20260502111155 53 208 3.0 11.0 0.00 0.00 0.00 88 995.1
20260502110151 52 179 4.0 10.0 0.00 0.00 0.00 88 995.0
20260502105653 53 202 4.0 12.0 0.00 0.00 0.00 88 995.0
20260502104151 53 208 3.0 9.0 0.00 0.00 0.00 88 995.1
20260502103649 53 214 4.0 8.0 0.00 0.00 0.00 88 995.1
20260502103151 52 246 3.0 8.0 0.00 0.00 0.00 88 995.2
20260502102651 52 200 2.0 8.0 0.00 0.00 0.00 88 995.1
20260502102150 52 185 3.0 8.0 0.00 0.00 0.00 88 995.2
20260502101645 52 234 3.0 10.0 0.00 0.00 0.00 88 995.3
20260502100647 52 215 5.0 13.0 0.00 0.00 0.00 88 995.3
20260502100145 52 188 5.0 11.0 0.00 0.00 0.00 88 995.4
20260502091142 52 235 3.0 7.0 0.00 0.00 0.00 89 995.9
20260502090636 52 240 3.0 7.0 0.00 0.00 0.00 89 995.8
20260502090129 52 265 3.0 9.0 0.00 0.00 0.00 89 995.7
20260502071424 53 273 3.0 11.0 0.00 0.00 0.00 88 996.0
20260502070917 53 172 3.0 8.0 0.00 0.00 0.00 88 995.9
20260502070412 53 235 2.0 7.0 0.00 0.00 0.00 88 996.0
20260502065906 53 182 3.0 10.0 0.00 0.00 0.00 88 996.0
20260502065400 53 238 3.0 10.0 0.00 0.00 0.00 88 996.1
20260502064853 53 243 3.0 9.0 0.00 0.00 0.00 88 996.1
20260502064349 53 246 4.0 9.0 0.00 0.00 0.00 88 996.1
20260502063335 53 182 4.0 9.0 0.00 0.00 0.00 88 996.1
20260502062830 53 177 2.0 6.0 0.00 0.00 0.00 88 996.1
20260502062324 53 234 2.0 6.0 0.00 0.00 0.00 88 996.1
20260502061818 53 256 2.0 6.0 0.00 0.00 0.00 88 996.0
20260502061312 53 215 3.0 6.0 0.00 0.00 0.00 88 996.1
20260502060805 53 230 2.0 6.0 0.00 0.00 0.00 88 996.1
20260502060259 53 227 3.0 9.0 0.00 0.00 0.00 88 996.2
20260502055754 53 194 4.0 9.0 0.00 0.00 0.00 88 996.2
20260502055248 53 186 4.0 10.0 0.00 0.00 0.00 88 996.3
20260502054742 53 195 4.0 10.0 0.00 0.00 0.00 88 996.3
20260502054236 53 190 3.0 8.0 0.00 0.00 0.00 88 996.3
20260502053231 53 153 3.0 10.0 0.00 0.00 0.00 88 996.3
20260502052730 53 234 4.0 10.0 0.00 0.00 0.00 88 996.3
20260502051729 53 166 2.0 7.0 0.00 0.00 0.00 88 996.3
20260502051228 53 207 2.0 5.0 0.00 0.00 0.00 88 996.3
20260502050730 53 248 2.0 7.0 0.00 0.00 0.00 88 996.4
20260502050230 53 254 2.0 7.0 0.00 0.00 0.00 88 996.4
20260502045726 53 242 2.0 6.0 0.00 0.00 0.00 88 996.3
20260502045226 53 198 2.0 6.0 0.00 0.00 0.00 88 996.4
20260502044723 53 206 2.0 7.0 0.00 0.00 0.00 88 996.4
20260502044224 53 233 2.0 7.0 0.00 0.00 0.00 88 996.4
20260502043723 53 207 2.0 4.0 0.00 0.00 0.00 88 996.3
20260502042220 53 197 2.0 5.0 0.00 0.00 0.00 88 996.3
20260502041719 53 245 3.0 8.0 0.00 0.00 0.00 88 996.3
20260502041221 53 242 3.0 8.0 0.00 0.00 0.00 87 996.3
20260502040720 53 260 3.0 8.0 0.00 0.00 0.00 87 996.1
20260502040215 53 236 2.0 7.0 0.00 0.00 0.00 88 996.1
20260502035712 54 180 2.0 7.0 0.00 0.00 0.00 88 996.0
20260502035211 53 236 2.0 7.0 0.00 0.00 0.00 87 995.9
20260502034712 53 255 2.0 7.0 0.00 0.00 0.00 87 995.7
20260502034211 53 226 2.0 4.0 0.00 0.00 0.00 87 995.6
20260502033711 54 242 2.0 7.0 0.00 0.00 0.00 87 995.5
20260502033209 54 254 2.0 7.0 0.00 0.00 0.00 87 995.5
20260502032207 54 211 2.0 8.0 0.00 0.00 0.00 87 995.4
20260502031707 54 240 3.0 7.0 0.00 0.00 0.00 86 995.5
20260502031207 54 240 3.0 6.0 0.00 0.00 0.00 86 995.5
20260502030706 54 221 2.0 7.0 0.00 0.00 0.00 86 995.4
20260502030208 54 249 3.0 7.0 0.00 0.00 0.00 86 995.4
20260502025702 54 252 3.0 8.0 0.00 0.00 0.00 86 995.4
20260502025203 55 229 3.0 8.0 0.00 0.00 0.00 86 995.4
20260502024704 55 217 2.0 8.0 0.00 0.00 0.00 86 995.3
20260502024202 55 191 2.0 8.0 0.00 0.00 0.00 85 995.3
20260502023703 55 257 3.0 8.0 0.00 0.00 0.00 85 995.3
20260502023203 55 179 3.0 8.0 0.00 0.00 0.00 85 995.4
20260502022704 55 241 3.0 7.0 0.00 0.00 0.00 85 995.4
20260502022204 55 251 3.0 7.0 0.00 0.00 0.00 85 995.4
20260502021703 55 234 3.0 8.0 0.00 0.00 0.00 85 995.4
20260502021159 55 211 3.0 8.0 0.00 0.00 0.00 85 995.5
20260502020659 55 223 3.0 8.0 0.00 0.00 0.00 84 995.4
20260502015658 56 232 3.0 7.0 0.00 0.00 0.00 83 995.5
20260502015159 56 215 3.0 7.0 0.00 0.00 0.00 83 995.5
20260502014659 56 182 4.0 8.0 0.00 0.00 0.00 83 995.5
20260502014158 56 245 4.0 8.0 0.00 0.00 0.00 82 995.5
20260502013659 56 247 4.0 9.0 0.00 0.00 0.00 82 995.5
20260502013200 57 201 4.0 10.0 0.00 0.00 0.00 81 995.6
20260502012700 57 262 4.0 10.0 0.00 0.00 0.00 81 995.6
20260502012200 58 240 4.0 8.0 0.00 0.00 0.00 80 995.5
20260502011658 58 238 4.0 9.0 0.00 0.00 0.00 80 995.5
20260502011159 58 243 4.0 9.0 0.00 0.00 0.00 80 995.5
20260502010658 58 174 4.0 11.0 0.00 0.00 0.00 80 995.5
20260502010158 58 251 4.0 11.0 0.00 0.00 0.00 80 995.6
20260502005659 58 196 3.0 7.0 0.00 0.00 0.00 79 995.7
20260502005159 59 250 4.0 10.0 0.00 0.00 0.00 77 995.8
20260502004659 60 232 4.0 10.0 0.00 0.00 0.00 78 995.7
20260502004153 60 232 4.0 8.0 0.00 0.00 0.00 78 995.7
20260502003647 60 217 4.0 8.0 0.00 0.00 0.00 78 995.7
20260502002635 60 208 4.0 7.0 0.00 0.00 0.00 77 995.6
20260502002129 60 176 4.0 9.0 0.00 0.00 0.00 77 995.5
20260502001623 60 255 4.0 9.0 0.00 0.00 0.00 77 995.6
20260502000621 60 225 5.0 10.0 0.00 0.00 0.00 75 995.6
20260502000121 61 178 4.0 10.0 0.00 0.00 0.00 75 995.7
20260501235620 61 159 5.0 10.0 0.00 0.00 0.00 75 995.6
20260501235122 61 190 4.0 10.0 0.00 0.00 0.00 75 995.7